Вернуться в каталог

ELEKTRON 3 DEB

АктивенUNKNOWN
NORAD 831·DEBRIS·🇷🇺 Russia

Запущен Jul 10, 1964 с Baikonur Cosmodrome

Loading…

Ближайшие Пролёты (ближайшие 24 часа)

TLE

СвежийSource: Space-Track

Эпоха: Sep 13, 2026, 10:58 UTC

1 00831U 64038C   26256.45739932  .00009217  00000-0  76077-3 0  9995
2 00831  60.6632 319.5181 1233512  73.1716 300.0659 12.85659963377270

Отслеживайте ELEKTRON 3 DEB в реальном времени с AllMySat

Download on the App Store